Time,TemperatureF,DewpointF,PressureIn,WindDirection,WindDirectionDegrees,WindSpeedMPH,WindSpeedGustMPH,Humidity,HourlyPrecipIn,Conditions,Clouds,dailyrainin,SoftwareType,DateUTC
2013-04-19 00:02:00,73.0,69.9,30.03,SE,139,5.0,11.0,90,0.00,,,0.00,Wunderground v.1.15,2013-04-19 04:02:00,
2013-04-19 00:04:00,73.0,69.9,30.03,SE,146,5.0,11.0,90,0.00,,,0.00,Wunderground v.1.15,2013-04-19 04:04:00,
2013-04-19 00:08:00,73.0,69.9,30.03,SE,142,5.0,11.0,90,0.00,,,0.00,Wunderground v.1.15,2013-04-19 04:08:00,
2013-04-19 00:14:00,73.0,70.2,30.03,SE,145,5.0,7.0,91,0.00,,,0.00,Wunderground v.1.15,2013-04-19 04:14:00,
2013-04-19 00:16:00,73.1,70.3,30.03,SSE,151,5.0,7.0,91,0.00,,,0.00,Wunderground v.1.15,2013-04-19 04:16:00,
2013-04-19 00:22:00,73.0,70.2,30.03,SSE,152,5.0,7.0,91,0.00,,,0.00,Wunderground v.1.15,2013-04-19 04:22:00,
2013-04-19 00:28:00,73.1,70.3,30.03,SE,145,5.0,7.0,91,0.00,,,0.00,Wunderground v.1.15,2013-04-19 04:28:00,
2013-04-19 00:30:00,73.0,70.2,30.02,SE,141,5.0,5.0,91,0.00,,,0.00,Wunderground v.1.15,2013-04-19 04:30:00,
2013-04-19 00:36:00,73.1,70.3,30.03,SSE,157,4.0,6.0,91,0.00,,,0.00,Wunderground v.1.15,2013-04-19 04:36:00,
2013-04-19 00:42:00,73.1,70.3,30.02,SE,137,5.0,6.0,91,0.00,,,0.00,Wunderground v.1.15,2013-04-19 04:42:00,
2013-04-19 00:48:00,73.2,70.7,30.03,SE,136,6.0,8.0,92,0.00,,,0.00,Wunderground v.1.15,2013-04-19 04:48:00,
2013-04-19 00:54:00,73.2,70.7,30.02,SSE,152,6.0,7.0,92,0.00,,,0.00,Wunderground v.1.15,2013-04-19 04:54:00,
2013-04-19 01:00:00,73.2,70.7,30.02,SE,128,6.0,6.0,92,0.00,,,0.00,Wunderground v.1.15,2013-04-19 05:00:00,
2013-04-19 01:06:00,73.2,70.7,30.02,SE,136,6.0,9.0,92,0.00,,,0.00,Wunderground v.1.15,2013-04-19 05:06:00,
2013-04-19 01:12:00,73.1,70.6,30.02,SSE,157,6.0,7.0,92,0.00,,,0.00,Wunderground v.1.15,2013-04-19 05:12:00,
2013-04-19 01:18:00,73.1,70.6,30.02,South,175,5.0,7.0,92,0.00,,,0.00,Wunderground v.1.15,2013-04-19 05:18:00,
2013-04-19 01:24:00,73.0,70.5,30.01,South,175,4.0,8.0,92,0.00,,,0.00,Wunderground v.1.15,2013-04-19 05:24:00,
2013-04-19 01:30:00,73.0,70.5,30.01,SSE,157,4.0,4.0,92,0.00,,,0.00,Wunderground v.1.15,2013-04-19 05:30:00,
2013-04-19 01:36:00,73.0,70.9,30.01,South,169,4.0,4.0,93,0.00,,,0.00,Wunderground v.1.15,2013-04-19 05:36:00,
2013-04-19 01:42:00,73.0,70.9,30.01,SE,136,4.0,7.0,93,0.00,,,0.00,Wunderground v.1.15,2013-04-19 05:42:00,
2013-04-19 01:48:00,73.1,71.0,30.01,South,176,6.0,7.0,93,0.00,,,0.00,Wunderground v.1.15,2013-04-19 05:48:00,
2013-04-19 01:54:00,73.1,71.0,30.01,SE,144,5.0,6.0,93,0.00,,,0.00,Wunderground v.1.15,2013-04-19 05:54:00,
2013-04-19 02:00:00,73.1,71.0,30.00,South,171,5.0,7.0,93,0.00,,,0.00,Wunderground v.1.15,2013-04-19 06:00:00,
2013-04-19 02:06:00,73.2,71.1,30.00,South,171,5.0,12.0,93,0.00,,,0.00,Wunderground v.1.15,2013-04-19 06:06:00,
2013-04-19 02:12:00,73.2,71.1,29.99,SSE,150,5.0,5.0,93,0.00,,,0.00,Wunderground v.1.15,2013-04-19 06:12:00,
2013-04-19 02:18:00,73.3,70.8,29.99,SE,141,5.0,7.0,92,0.00,,,0.00,Wunderground v.1.15,2013-04-19 06:18:00,
2013-04-19 02:24:00,73.3,70.8,29.99,SSE,150,6.0,6.0,92,0.00,,,0.00,Wunderground v.1.15,2013-04-19 06:24:00,
2013-04-19 02:30:00,73.4,70.9,29.99,SSE,152,6.0,9.0,92,0.00,,,0.00,Wunderground v.1.15,2013-04-19 06:30:00,
2013-04-19 02:36:00,73.5,71.0,29.99,SSE,164,7.0,9.0,92,0.00,,,0.00,Wunderground v.1.15,2013-04-19 06:36:00,
2013-04-19 02:42:00,73.6,71.1,29.98,SSE,150,8.0,9.0,92,0.00,,,0.00,Wunderground v.1.15,2013-04-19 06:42:00,
2013-04-19 02:48:00,73.7,71.2,29.98,SSE,155,7.0,9.0,92,0.00,,,0.00,Wunderground v.1.15,2013-04-19 06:48:00,
2013-04-19 02:54:00,73.7,70.9,29.98,SSE,161,7.0,8.0,91,0.00,,,0.00,Wunderground v.1.15,2013-04-19 06:54:00,
2013-04-19 03:00:00,73.7,70.9,29.98,SE,138,7.0,7.0,91,0.00,,,0.00,Wunderground v.1.15,2013-04-19 07:00:00,
2013-04-19 03:06:00,73.7,70.9,29.98,SE,136,7.0,8.0,91,0.00,,,0.00,Wunderground v.1.15,2013-04-19 07:06:00,
2013-04-19 03:12:00,73.7,70.9,29.98,SSE,159,7.0,7.0,91,0.00,,,0.00,Wunderground v.1.15,2013-04-19 07:12:00,
2013-04-19 03:18:00,73.7,70.9,29.98,SSE,165,6.0,7.0,91,0.00,,,0.00,Wunderground v.1.15,2013-04-19 07:18:00,
2013-04-19 03:24:00,73.7,70.9,29.98,SSE,155,5.0,7.0,91,0.00,,,0.00,Wunderground v.1.15,2013-04-19 07:24:00,
2013-04-19 03:30:00,73.7,70.9,29.98,South,180,6.0,6.0,91,0.00,,,0.00,Wunderground v.1.15,2013-04-19 07:30:00,
2013-04-19 03:36:00,73.8,71.0,29.98,South,180,8.0,11.0,91,0.00,,,0.00,Wunderground v.1.15,2013-04-19 07:36:00,
2013-04-19 03:42:00,73.8,71.0,29.98,SSE,167,7.0,8.0,91,0.00,,,0.00,Wunderground v.1.15,2013-04-19 07:42:00,
2013-04-19 03:48:00,73.8,71.0,29.98,SSE,164,7.0,9.0,91,0.00,,,0.00,Wunderground v.1.15,2013-04-19 07:48:00,
2013-04-19 03:54:00,73.9,71.1,29.98,SSE,160,8.0,8.0,91,0.00,,,0.00,Wunderground v.1.15,2013-04-19 07:54:00,
2013-04-19 04:00:00,74.0,71.2,29.97,South,179,8.0,8.0,91,0.00,,,0.00,Wunderground v.1.15,2013-04-19 08:00:00,
2013-04-19 04:06:00,74.0,71.2,29.97,SSE,153,8.0,11.0,91,0.00,,,0.00,Wunderground v.1.15,2013-04-19 08:06:00,
2013-04-19 04:12:00,74.1,71.3,29.97,SE,144,8.0,8.0,91,0.00,,,0.00,Wunderground v.1.15,2013-04-19 08:12:00,
2013-04-19 04:18:00,74.2,71.1,29.97,South,170,9.0,10.0,90,0.00,,,0.00,Wunderground v.1.15,2013-04-19 08:18:00,
2013-04-19 04:24:00,74.2,71.1,29.97,SSE,166,9.0,12.0,90,0.00,,,0.00,Wunderground v.1.15,2013-04-19 08:24:00,
2013-04-19 04:30:00,74.4,71.3,29.97,South,175,10.0,10.0,90,0.00,,,0.00,Wunderground v.1.15,2013-04-19 08:30:00,
2013-04-19 04:36:00,74.5,71.4,29.97,South,180,11.0,13.0,90,0.00,,,0.00,Wunderground v.1.15,2013-04-19 08:36:00,
2013-04-19 04:42:00,74.5,71.0,29.97,South,188,9.0,10.0,89,0.00,,,0.00,Wunderground v.1.15,2013-04-19 08:42:00,
2013-04-19 04:48:00,74.5,71.0,29.97,South,171,9.0,10.0,89,0.00,,,0.00,Wunderground v.1.15,2013-04-19 08:48:00,
2013-04-19 04:54:00,74.4,70.9,29.97,South,172,8.0,11.0,89,0.00,,,0.00,Wunderground v.1.15,2013-04-19 08:54:00,
2013-04-19 05:00:00,74.3,70.8,29.97,South,186,9.0,11.0,89,0.00,,,0.00,Wunderground v.1.15,2013-04-19 09:00:00,
2013-04-19 05:06:00,74.2,70.7,29.97,SSW,197,10.0,13.0,89,0.00,,,0.00,Wunderground v.1.15,2013-04-19 09:06:00,
2013-04-19 05:12:00,74.1,70.6,29.97,SSW,195,11.0,11.0,89,0.00,,,0.00,Wunderground v.1.15,2013-04-19 09:12:00,
2013-04-19 05:18:00,74.1,70.3,29.97,SSE,167,12.0,14.0,88,0.00,,,0.00,Wunderground v.1.15,2013-04-19 09:18:00,
2013-04-19 05:24:00,74.0,69.9,29.97,SSW,210,13.0,14.0,87,0.00,,,0.00,Wunderground v.1.15,2013-04-19 09:24:00,
2013-04-19 05:30:00,74.0,69.9,29.97,SSE,164,13.0,14.0,87,0.00,,,0.00,Wunderground v.1.15,2013-04-19 09:30:00,
2013-04-19 05:36:00,73.9,69.8,29.97,South,176,13.0,14.0,87,0.00,,,0.00,Wunderground v.1.15,2013-04-19 09:36:00,
2013-04-19 05:42:00,73.8,69.3,29.98,South,190,12.0,13.0,86,0.00,,,0.00,Wunderground v.1.15,2013-04-19 09:42:00,
2013-04-19 05:48:00,73.7,69.2,29.98,SSW,192,11.0,13.0,86,0.00,,,0.00,Wunderground v.1.15,2013-04-19 09:48:00,
2013-04-19 05:54:00,73.6,69.2,29.98,South,180,11.0,18.0,86,0.00,,,0.00,Wunderground v.1.15,2013-04-19 09:54:00,
2013-04-19 06:00:00,73.4,69.3,29.98,South,179,12.0,12.0,87,0.00,,,0.00,Wunderground v.1.15,2013-04-19 10:00:00,
2013-04-19 06:06:00,73.3,69.5,29.98,South,183,10.0,15.0,88,0.00,,,0.00,Wunderground v.1.15,2013-04-19 10:06:00,
2013-04-19 06:12:00,73.2,69.4,29.98,SSE,162,9.0,13.0,88,0.00,,,0.00,Wunderground v.1.15,2013-04-19 10:12:00,
2013-04-19 06:18:00,73.1,69.3,29.98,SSW,209,9.0,13.0,88,0.00,,,0.00,Wunderground v.1.15,2013-04-19 10:18:00,
2013-04-19 06:24:00,73.1,69.3,29.99,SSE,159,9.0,10.0,88,0.00,,,0.00,Wunderground v.1.15,2013-04-19 10:24:00,
2013-04-19 06:30:00,73.1,69.3,29.99,SSW,207,8.0,8.0,88,0.00,,,0.00,Wunderground v.1.15,2013-04-19 10:30:00,
2013-04-19 06:36:00,73.1,69.3,29.99,SSW,206,7.0,8.0,88,0.00,,,0.00,Wunderground v.1.15,2013-04-19 10:36:00,
2013-04-19 06:42:00,73.1,69.0,29.99,SSW,210,6.0,9.0,87,0.00,,,0.00,Wunderground v.1.15,2013-04-19 10:42:00,
2013-04-19 06:48:00,73.2,69.1,29.99,SSW,206,8.0,9.0,87,0.00,,,0.00,Wunderground v.1.15,2013-04-19 10:48:00,
2013-04-19 06:54:00,73.3,68.9,29.99,SSE,167,7.0,8.0,86,0.00,,,0.00,Wunderground v.1.15,2013-04-19 10:54:00,
2013-04-19 07:00:00,73.6,69.2,30.00,South,191,8.0,9.0,86,0.00,,,0.00,Wunderground v.1.15,2013-04-19 11:00:00,
2013-04-19 07:06:00,74.0,68.2,30.00,South,183,10.0,25.0,82,0.00,,,0.00,Wunderground v.1.15,2013-04-19 11:06:00,
2013-04-19 07:12:00,74.1,67.9,30.00,SSW,192,9.0,9.0,81,0.00,,,0.00,Wunderground v.1.15,2013-04-19 11:12:00,
2013-04-19 07:18:00,74.2,68.0,30.00,South,173,8.0,9.0,81,0.00,,,0.00,Wunderground v.1.15,2013-04-19 11:18:00,
2013-04-19 07:24:00,74.2,68.0,30.00,SSW,195,8.0,11.0,81,0.00,,,0.00,Wunderground v.1.15,2013-04-19 11:24:00,
2013-04-19 07:30:00,74.2,67.6,30.00,South,186,7.0,7.0,80,0.00,,,0.00,Wunderground v.1.15,2013-04-19 11:30:00,
2013-04-19 07:36:00,74.4,67.5,30.00,SSW,206,7.0,8.0,79,0.00,,,0.00,Wunderground v.1.15,2013-04-19 11:36:00,
2013-04-19 07:42:00,74.5,67.6,30.01,SSE,167,7.0,7.0,79,0.00,,,0.00,Wunderground v.1.15,2013-04-19 11:42:00,
2013-04-19 07:48:00,74.6,66.9,30.01,SSW,194,6.0,7.0,77,0.00,,,0.00,Wunderground v.1.15,2013-04-19 11:48:00,
2013-04-19 07:54:00,74.7,67.0,30.01,SW,225,6.0,10.0,77,0.00,,,0.00,Wunderground v.1.15,2013-04-19 11:54:00,
2013-04-19 08:00:00,74.7,67.4,30.02,South,175,6.0,6.0,78,0.00,,,0.00,Wunderground v.1.15,2013-04-19 12:00:00,
2013-04-19 08:06:00,74.6,67.7,30.02,SSE,157,5.0,15.0,79,0.00,,,0.00,Wunderground v.1.15,2013-04-19 12:06:00,
2013-04-19 08:12:00,74.5,67.9,30.02,South,173,6.0,10.0,80,0.00,,,0.00,Wunderground v.1.15,2013-04-19 12:12:00,
2013-04-19 08:18:00,74.3,68.1,30.02,SSW,206,7.0,10.0,81,0.00,,,0.00,Wunderground v.1.15,2013-04-19 12:18:00,
2013-04-19 08:24:00,74.1,67.9,30.02,South,189,6.0,6.0,81,0.00,,,0.00,Wunderground v.1.15,2013-04-19 12:24:00,
2013-04-19 08:30:00,74.0,68.2,30.02,South,178,5.0,5.0,82,0.00,,,0.00,Wunderground v.1.15,2013-04-19 12:30:00,
2013-04-19 08:36:00,74.1,68.6,30.02,SSW,192,4.0,5.0,83,0.00,,,0.00,Wunderground v.1.15,2013-04-19 12:36:00,
2013-04-19 08:42:00,74.1,68.6,30.02,SSE,164,4.0,4.0,83,0.00,,,0.00,Wunderground v.1.15,2013-04-19 12:42:00,
2013-04-19 08:48:00,74.3,69.1,30.02,SSW,192,4.0,6.0,84,0.00,,,0.00,Wunderground v.1.15,2013-04-19 12:48:00,
2013-04-19 08:54:00,74.5,69.3,30.02,South,181,5.0,5.0,84,0.00,,,0.00,Wunderground v.1.15,2013-04-19 12:54:00,
2013-04-19 09:00:00,74.8,69.6,30.02,South,176,5.0,5.0,84,0.00,,,0.00,Wunderground v.1.15,2013-04-19 13:00:00,
2013-04-19 09:06:00,75.1,69.6,30.02,SSE,157,5.0,10.0,83,0.00,,,0.00,Wunderground v.1.15,2013-04-19 13:06:00,
2013-04-19 09:12:00,75.5,70.0,30.02,SSE,160,6.0,9.0,83,0.00,,,0.00,Wunderground v.1.15,2013-04-19 13:12:00,
2013-04-19 09:18:00,75.6,70.1,30.02,South,183,7.0,9.0,83,0.00,,,0.00,Wunderground v.1.15,2013-04-19 13:18:00,
2013-04-19 09:24:00,75.8,70.3,30.02,South,181,6.0,9.0,83,0.00,,,0.00,Wunderground v.1.15,2013-04-19 13:24:00,
2013-04-19 09:30:00,76.0,70.8,30.02,SSW,210,7.0,8.0,84,0.00,,,0.00,Wunderground v.1.15,2013-04-19 13:30:00,
2013-04-19 09:36:00,76.2,71.0,30.02,South,175,9.0,13.0,84,0.00,,,0.00,Wunderground v.1.15,2013-04-19 13:36:00,
2013-04-19 09:42:00,76.2,71.0,30.02,South,173,10.0,10.0,84,0.00,,,0.00,Wunderground v.1.15,2013-04-19 13:42:00,
2013-04-19 09:48:00,76.8,71.2,30.01,SSE,163,8.0,12.0,83,0.00,,,0.00,Wunderground v.1.15,2013-04-19 13:48:00,
2013-04-19 09:54:00,77.4,71.5,30.01,SSW,206,9.0,13.0,82,0.00,,,0.00,Wunderground v.1.15,2013-04-19 13:54:00,
2013-04-19 10:00:00,78.2,71.9,30.01,South,169,10.0,10.0,81,0.00,,,0.00,Wunderground v.1.15,2013-04-19 14:00:00,
2013-04-19 10:06:00,79.4,72.3,30.01,SSW,196,10.0,11.0,79,0.00,,,0.00,Wunderground v.1.15,2013-04-19 14:06:00,
2013-04-19 10:12:00,80.1,72.6,30.01,SSE,162,9.0,10.0,78,0.00,,,0.00,Wunderground v.1.15,2013-04-19 14:12:00,
2013-04-19 10:18:00,80.3,72.4,30.01,SSW,203,10.0,13.0,77,0.00,,,0.00,Wunderground v.1.15,2013-04-19 14:18:00,
2013-04-19 10:24:00,80.7,72.4,30.01,South,171,11.0,12.0,76,0.00,,,0.00,Wunderground v.1.15,2013-04-19 14:24:00,
2013-04-19 10:30:00,80.4,71.7,30.00,South,184,11.0,15.0,75,0.00,,,0.00,Wunderground v.1.15,2013-04-19 14:30:00,
2013-04-19 10:36:00,80.4,71.7,30.00,SSW,210,13.0,17.0,75,0.00,,,0.00,Wunderground v.1.15,2013-04-19 14:36:00,
2013-04-19 10:42:00,81.0,71.9,30.01,SW,223,12.0,15.0,74,0.00,,,0.00,Wunderground v.1.15,2013-04-19 14:42:00,
2013-04-19 10:48:00,80.8,71.7,30.01,SSE,168,13.0,19.0,74,0.00,,,0.00,Wunderground v.1.15,2013-04-19 14:48:00,
2013-04-19 10:54:00,80.6,71.9,30.01,SW,228,12.0,13.0,75,0.00,,,0.00,Wunderground v.1.15,2013-04-19 14:54:00,
2013-04-19 11:00:00,80.8,72.1,30.00,SE,146,9.0,9.0,75,0.00,,,0.00,Wunderground v.1.15,2013-04-19 15:00:00,
2013-04-19 11:06:00,81.4,72.3,30.00,SSW,211,9.0,14.0,74,0.00,,,0.00,Wunderground v.1.15,2013-04-19 15:06:00,
2013-04-19 11:12:00,82.0,71.7,30.01,SSW,200,10.0,10.0,71,0.00,,,0.00,Wunderground v.1.15,2013-04-19 15:12:00,
2013-04-19 11:18:00,82.1,71.3,30.01,SSW,198,11.0,15.0,70,0.00,,,0.00,Wunderground v.1.15,2013-04-19 15:18:00,
2013-04-19 11:24:00,81.9,71.2,30.01,SSW,194,13.0,18.0,70,0.00,,,0.00,Wunderground v.1.15,2013-04-19 15:24:00,
2013-04-19 11:30:00,82.6,71.8,30.01,SSW,198,13.0,13.0,70,0.00,,,0.00,Wunderground v.1.15,2013-04-19 15:30:00,
2013-04-19 11:36:00,83.1,71.9,30.00,SSE,165,11.0,13.0,69,0.00,,,0.00,Wunderground v.1.15,2013-04-19 15:36:00,
2013-04-19 11:42:00,83.3,71.6,30.00,SSE,165,13.0,13.0,68,0.00,,,0.00,Wunderground v.1.15,2013-04-19 15:42:00,
2013-04-19 11:48:00,83.3,71.2,30.00,South,178,13.0,15.0,67,0.00,,,0.00,Wunderground v.1.15,2013-04-19 15:48:00,
2013-04-19 11:54:00,83.6,71.5,30.00,SSE,151,12.0,14.0,67,0.00,,,0.00,Wunderground v.1.15,2013-04-19 15:54:00,
2013-04-19 12:00:00,83.8,71.7,30.00,SSW,206,11.0,11.0,67,0.00,,,0.00,Wunderground v.1.15,2013-04-19 16:00:00,
2013-04-19 12:06:00,84.5,71.9,30.00,South,179,11.0,18.0,66,0.00,,,0.00,Wunderground v.1.15,2013-04-19 16:06:00,
2013-04-19 12:12:00,84.4,71.3,30.00,South,179,11.0,16.0,65,0.00,,,0.00,Wunderground v.1.15,2013-04-19 16:12:00,
2013-04-19 12:18:00,84.5,71.0,30.00,South,187,12.0,16.0,64,0.00,,,0.00,Wunderground v.1.15,2013-04-19 16:18:00,
2013-04-19 12:24:00,84.5,71.0,29.99,SSE,163,12.0,13.0,64,0.00,,,0.00,Wunderground v.1.15,2013-04-19 16:24:00,
2013-04-19 12:30:00,85.4,71.8,29.99,SSE,159,12.0,12.0,64,0.00,,,0.00,Wunderground v.1.15,2013-04-19 16:30:00,
2013-04-19 12:36:00,85.7,70.7,29.99,South,178,11.0,19.0,61,0.00,,,0.00,Wunderground v.1.15,2013-04-19 16:36:00,
2013-04-19 12:42:00,85.2,70.7,29.98,SSE,163,14.0,14.0,62,0.00,,,0.00,Wunderground v.1.15,2013-04-19 16:42:00,
2013-04-19 12:48:00,85.6,70.6,29.98,SSW,203,13.0,16.0,61,0.00,,,0.00,Wunderground v.1.15,2013-04-19 16:48:00,
2013-04-19 12:54:00,85.8,70.8,29.98,SSW,207,14.0,17.0,61,0.00,,,0.00,Wunderground v.1.15,2013-04-19 16:54:00,
2013-04-19 13:00:00,86.2,70.7,29.97,South,186,14.0,14.0,60,0.00,,,0.00,Wunderground v.1.15,2013-04-19 17:00:00,
2013-04-19 13:06:00,86.6,70.1,29.97,SSE,167,13.0,18.0,58,0.00,,,0.00,Wunderground v.1.15,2013-04-19 17:06:00,
2013-04-19 13:12:00,86.9,70.8,29.97,SSE,165,14.0,14.0,59,0.00,,,0.00,Wunderground v.1.15,2013-04-19 17:12:00,
2013-04-19 13:18:00,87.2,70.6,29.96,SSW,192,13.0,14.0,58,0.00,,,0.00,Wunderground v.1.15,2013-04-19 17:18:00,
2013-04-19 13:24:00,87.1,70.5,29.96,SE,137,12.0,15.0,58,0.00,,,0.00,Wunderground v.1.15,2013-04-19 17:24:00,
2013-04-19 13:30:00,86.9,69.8,29.96,South,179,12.0,12.0,57,0.00,,,0.00,Wunderground v.1.15,2013-04-19 17:30:00,
2013-04-19 13:36:00,86.6,69.6,29.95,South,191,13.0,13.0,57,0.00,,,0.00,Wunderground v.1.15,2013-04-19 17:36:00,
2013-04-19 13:42:00,86.8,69.7,29.95,South,175,14.0,17.0,57,0.00,,,0.00,Wunderground v.1.15,2013-04-19 17:42:00,
2013-04-19 13:48:00,87.1,69.5,29.95,South,186,15.0,17.0,56,0.00,,,0.00,Wunderground v.1.15,2013-04-19 17:48:00,
2013-04-19 13:54:00,87.4,69.8,29.94,South,179,13.0,23.0,56,0.00,,,0.00,Wunderground v.1.15,2013-04-19 17:54:00,
2013-04-19 14:00:00,87.1,69.5,29.94,South,169,13.0,13.0,56,0.00,,,0.00,Wunderground v.1.15,2013-04-19 18:00:00,
2013-04-19 14:06:00,87.3,70.2,29.94,South,171,12.0,20.0,57,0.00,,,0.00,Wunderground v.1.15,2013-04-19 18:06:00,
2013-04-19 14:12:00,87.5,69.9,29.93,SSW,192,12.0,12.0,56,0.00,,,0.00,Wunderground v.1.15,2013-04-19 18:12:00,
2013-04-19 14:18:00,87.8,69.6,29.93,SSW,201,11.0,14.0,55,0.00,,,0.00,Wunderground v.1.15,2013-04-19 18:18:00,
2013-04-19 14:24:00,87.7,69.5,29.93,SSW,211,12.0,19.0,55,0.00,,,0.00,Wunderground v.1.15,2013-04-19 18:24:00,
2013-04-19 14:30:00,88.2,69.5,29.93,South,180,13.0,13.0,54,0.00,,,0.00,Wunderground v.1.15,2013-04-19 18:30:00,
2013-04-19 14:36:00,87.9,68.6,29.92,SSW,198,14.0,16.0,53,0.00,,,0.00,Wunderground v.1.15,2013-04-19 18:36:00,
2013-04-19 14:42:00,87.9,69.2,29.92,SSW,195,14.0,14.0,54,0.00,,,0.00,Wunderground v.1.15,2013-04-19 18:42:00,
2013-04-19 14:48:00,88.5,69.7,29.92,WSW,248,11.0,14.0,54,0.00,,,0.00,Wunderground v.1.15,2013-04-19 18:48:00,
2013-04-19 14:54:00,88.0,68.7,29.92,SW,219,11.0,22.0,53,0.00,,,0.00,Wunderground v.1.15,2013-04-19 18:54:00,
2013-04-19 15:00:00,89.0,68.5,29.92,South,187,12.0,13.0,51,0.00,,,0.00,Wunderground v.1.15,2013-04-19 19:00:00,
2013-04-19 15:06:00,88.7,68.2,29.91,South,191,12.0,23.0,51,0.00,,,0.00,Wunderground v.1.15,2013-04-19 19:06:00,
2013-04-19 15:12:00,88.6,68.7,29.90,South,190,13.0,19.0,52,0.00,,,0.00,Wunderground v.1.15,2013-04-19 19:12:00,
2013-04-19 15:18:00,88.8,68.9,29.90,SSW,207,13.0,19.0,52,0.00,,,0.00,Wunderground v.1.15,2013-04-19 19:18:00,
2013-04-19 15:24:00,89.1,69.2,29.89,SSE,167,13.0,14.0,52,0.00,,,0.00,Wunderground v.1.15,2013-04-19 19:24:00,
2013-04-19 15:30:00,89.1,68.0,29.89,South,171,14.0,19.0,50,0.00,,,0.00,Wunderground v.1.15,2013-04-19 19:30:00,
2013-04-19 15:36:00,88.4,68.0,29.89,South,178,13.0,19.0,51,0.00,,,0.00,Wunderground v.1.15,2013-04-19 19:36:00,
2013-04-19 15:42:00,87.1,67.9,29.89,SSW,209,12.0,18.0,53,0.00,,,0.00,Wunderground v.1.15,2013-04-19 19:42:00,
2013-04-19 15:48:00,86.6,68.0,29.89,SW,215,13.0,18.0,54,0.00,,,0.00,Wunderground v.1.15,2013-04-19 19:48:00,
2013-04-19 15:54:00,86.9,68.8,29.88,South,180,11.0,12.0,55,0.00,,,0.00,Wunderground v.1.15,2013-04-19 19:54:00,
2013-04-19 16:00:00,86.7,68.6,29.89,South,188,11.0,11.0,55,0.00,,,0.00,Wunderground v.1.15,2013-04-19 20:00:00,
2013-04-19 16:06:00,86.3,68.8,29.89,South,188,12.0,22.0,56,0.00,,,0.00,Wunderground v.1.15,2013-04-19 20:06:00,
2013-04-19 16:12:00,86.2,69.2,29.89,WSW,242,10.0,10.0,57,0.00,,,0.00,Wunderground v.1.15,2013-04-19 20:12:00,
2013-04-19 16:18:00,86.2,69.7,29.89,SSW,200,8.0,10.0,58,0.00,,,0.00,Wunderground v.1.15,2013-04-19 20:18:00,
2013-04-19 16:24:00,86.0,70.0,29.88,South,178,7.0,8.0,59,0.00,,,0.00,Wunderground v.1.15,2013-04-19 20:24:00,
2013-04-19 16:30:00,85.7,69.7,29.89,SSE,167,6.0,6.0,59,0.00,,,0.00,Wunderground v.1.15,2013-04-19 20:30:00,
2013-04-19 16:36:00,85.4,69.4,29.89,SSW,206,6.0,9.0,59,0.00,,,0.00,Wunderground v.1.15,2013-04-19 20:36:00,
2013-04-19 16:42:00,85.1,70.1,29.89,SSW,199,8.0,8.0,61,0.00,,,0.00,Wunderground v.1.15,2013-04-19 20:42:00,
2013-04-19 16:48:00,84.3,70.3,29.89,South,175,9.0,12.0,63,0.00,,,0.00,Wunderground v.1.15,2013-04-19 20:48:00,
2013-04-19 16:54:00,82.8,69.8,29.89,SSW,195,13.0,18.0,65,0.00,,,0.00,Wunderground v.1.15,2013-04-19 20:54:00,
2013-04-19 17:00:00,81.6,70.0,29.88,South,183,13.0,13.0,68,0.00,,,0.00,Wunderground v.1.15,2013-04-19 21:00:00,
2013-04-19 17:06:00,81.2,69.2,29.89,South,171,9.0,19.0,67,0.00,,,0.00,Wunderground v.1.15,2013-04-19 21:06:00,
2013-04-19 17:12:00,81.1,69.5,29.89,SSE,168,9.0,12.0,68,0.00,,,0.00,Wunderground v.1.15,2013-04-19 21:12:00,
2013-04-19 17:18:00,80.8,69.7,29.89,South,176,10.0,12.0,69,0.00,,,0.00,Wunderground v.1.15,2013-04-19 21:18:00,
2013-04-19 17:24:00,80.6,69.5,29.90,South,182,8.0,11.0,69,0.00,,,0.00,Wunderground v.1.15,2013-04-19 21:24:00,
2013-04-19 17:30:00,80.5,69.8,29.89,South,190,8.0,8.0,70,0.00,,,0.00,Wunderground v.1.15,2013-04-19 21:30:00,
2013-04-19 17:36:00,80.3,69.6,29.89,South,190,9.0,12.0,70,0.00,,,0.00,Wunderground v.1.15,2013-04-19 21:36:00,
2013-04-19 17:42:00,80.2,69.5,29.89,South,183,10.0,12.0,70,0.00,,,0.00,Wunderground v.1.15,2013-04-19 21:42:00,
2013-04-19 17:48:00,80.2,69.9,29.89,South,171,9.0,12.0,71,0.00,,,0.00,Wunderground v.1.15,2013-04-19 21:48:00,
2013-04-19 17:54:00,80.2,70.4,29.89,SSE,160,7.0,9.0,72,0.00,,,0.00,Wunderground v.1.15,2013-04-19 21:54:00,
2013-04-19 18:00:00,80.0,70.2,29.89,South,179,6.0,8.0,72,0.00,,,0.00,Wunderground v.1.15,2013-04-19 22:00:00,
2013-04-19 18:06:00,80.0,70.6,29.89,SSE,165,7.0,21.0,73,0.00,,,0.00,Wunderground v.1.15,2013-04-19 22:06:00,
2013-04-19 18:12:00,80.4,70.5,29.89,SSE,168,6.0,6.0,72,0.00,,,0.00,Wunderground v.1.15,2013-04-19 22:12:00,
2013-04-19 18:18:00,80.6,70.7,29.89,South,172,6.0,6.0,72,0.00,,,0.00,Wunderground v.1.15,2013-04-19 22:18:00,
2013-04-19 18:24:00,81.3,71.0,29.89,South,171,5.0,6.0,71,0.00,,,0.00,Wunderground v.1.15,2013-04-19 22:24:00,
2013-04-19 18:30:00,81.8,71.1,29.89,South,179,5.0,5.0,70,0.00,,,0.00,Wunderground v.1.15,2013-04-19 22:30:00,
2013-04-19 18:36:00,81.8,71.1,29.89,South,186,5.0,6.0,70,0.00,,,0.00,Wunderground v.1.15,2013-04-19 22:36:00,
2013-04-19 18:42:00,81.7,71.0,29.89,South,186,4.0,7.0,70,0.00,,,0.00,Wunderground v.1.15,2013-04-19 22:42:00,
2013-04-19 18:48:00,81.5,71.2,29.89,SSW,199,5.0,7.0,71,0.00,,,0.00,Wunderground v.1.15,2013-04-19 22:48:00,
2013-04-19 18:54:00,81.4,71.5,29.89,SSE,160,4.0,5.0,72,0.00,,,0.00,Wunderground v.1.15,2013-04-19 22:54:00,
2013-04-19 19:00:00,81.7,71.8,29.89,SSW,194,4.0,4.0,72,0.00,,,0.00,Wunderground v.1.15,2013-04-19 23:00:00,
2013-04-19 19:06:00,81.9,71.6,29.90,SSW,194,4.0,11.0,71,0.00,,,0.00,Wunderground v.1.15,2013-04-19 23:06:00,
2013-04-19 19:12:00,81.9,72.0,29.90,SW,227,4.0,5.0,72,0.00,,,0.00,Wunderground v.1.15,2013-04-19 23:12:00,
2013-04-19 19:18:00,81.9,72.0,29.91,SSE,163,1.0,5.0,72,0.00,,,0.00,Wunderground v.1.15,2013-04-19 23:18:00,
2013-04-19 19:24:00,81.7,71.8,29.91,West,264,1.0,1.0,72,0.00,,,0.00,Wunderground v.1.15,2013-04-19 23:24:00,
2013-04-19 19:30:00,81.4,71.9,29.92,WNW,303,1.0,3.0,73,0.00,,,0.00,Wunderground v.1.15,2013-04-19 23:30:00,
2013-04-19 19:36:00,81.2,71.3,29.92,WSW,253,3.0,3.0,72,0.00,,,0.00,Wunderground v.1.15,2013-04-19 23:36:00,
2013-04-19 19:42:00,80.9,71.0,29.92,West,280,4.0,4.0,72,0.00,,,0.00,Wunderground v.1.15,2013-04-19 23:42:00,
2013-04-19 19:48:00,80.6,71.5,29.92,West,260,3.0,7.0,74,0.00,,,0.00,Wunderground v.1.15,2013-04-19 23:48:00,
2013-04-19 19:54:00,80.3,71.3,29.92,South,188,4.0,4.0,74,0.00,,,0.00,Wunderground v.1.15,2013-04-19 23:54:00,
2013-04-19 20:00:00,80.1,71.5,29.92,SW,227,4.0,5.0,75,0.00,,,0.00,Wunderground v.1.15,2013-04-20 00:00:00,
2013-04-19 20:06:00,79.8,71.6,29.92,West,267,4.0,9.0,76,0.00,,,0.00,Wunderground v.1.15,2013-04-20 00:06:00,
2013-04-19 20:12:00,79.6,71.8,29.92,SSW,200,3.0,5.0,77,0.00,,,0.00,Wunderground v.1.15,2013-04-20 00:12:00,
2013-04-19 20:18:00,79.3,71.5,29.92,South,184,3.0,5.0,77,0.00,,,0.00,Wunderground v.1.15,2013-04-20 00:18:00,
2013-04-19 20:24:00,79.1,71.6,29.93,West,274,2.0,5.0,78,0.00,,,0.00,Wunderground v.1.15,2013-04-20 00:24:00,
2013-04-19 20:30:00,79.0,71.6,29.93,ENE,70,2.0,2.0,78,0.00,,,0.00,Wunderground v.1.15,2013-04-20 00:30:00,
2013-04-19 20:36:00,78.8,71.7,29.93,SE,140,1.0,2.0,79,0.00,,,0.00,Wunderground v.1.15,2013-04-20 00:36:00,
2013-04-19 20:42:00,78.6,71.5,29.93,West,261,2.0,4.0,79,0.00,,,0.00,Wunderground v.1.15,2013-04-20 00:42:00,
2013-04-19 20:48:00,78.5,71.4,29.93,West,279,1.0,4.0,79,0.00,,,0.00,Wunderground v.1.15,2013-04-20 00:48:00,
2013-04-19 20:54:00,78.4,71.7,29.93,West,281,1.0,1.0,80,0.00,,,0.00,Wunderground v.1.15,2013-04-20 00:54:00,
2013-04-19 21:00:00,78.3,72.0,29.94,WNW,283,1.0,1.0,81,0.00,,,0.00,Wunderground v.1.15,2013-04-20 01:00:00,
2013-04-19 21:06:00,78.2,71.9,29.94,SW,227,1.0,10.0,81,0.00,,,0.00,Wunderground v.1.15,2013-04-20 01:06:00,
2013-04-19 21:12:00,78.1,71.8,29.94,West,267,1.0,1.0,81,0.00,,,0.00,Wunderground v.1.15,2013-04-20 01:12:00,
2013-04-19 21:18:00,78.1,71.8,29.94,SW,226,0.0,1.0,81,0.00,,,0.00,Wunderground v.1.15,2013-04-20 01:18:00,
2013-04-19 21:24:00,78.1,71.8,29.95,SW,221,1.0,1.0,81,0.00,,,0.00,Wunderground v.1.15,2013-04-20 01:24:00,
2013-04-19 21:30:00,78.1,71.8,29.95,SSW,200,1.0,2.0,81,0.00,,,0.00,Wunderground v.1.15,2013-04-20 01:30:00,
2013-04-19 21:36:00,78.1,71.8,29.95,SSW,205,1.0,2.0,81,0.00,,,0.00,Wunderground v.1.15,2013-04-20 01:36:00,
2013-04-19 21:42:00,78.2,71.9,29.95,SE,135,1.0,1.0,81,0.00,,,0.00,Wunderground v.1.15,2013-04-20 01:42:00,
2013-04-19 21:48:00,78.3,72.0,29.95,WSW,246,1.0,1.0,81,0.00,,,0.00,Wunderground v.1.15,2013-04-20 01:48:00,
2013-04-19 21:54:00,78.5,72.2,29.95,WSW,253,2.0,4.0,81,0.00,,,0.00,Wunderground v.1.15,2013-04-20 01:54:00,
2013-04-19 22:00:00,78.5,71.8,29.95,SW,230,3.0,3.0,80,0.00,,,0.00,Wunderground v.1.15,2013-04-20 02:00:00,
2013-04-19 22:06:00,78.6,71.9,29.96,SW,221,3.0,4.0,80,0.00,,,0.00,Wunderground v.1.15,2013-04-20 02:06:00,
2013-04-19 22:12:00,77.2,70.9,29.97,NW,323,3.0,5.0,81,0.00,,,0.00,Wunderground v.1.15,2013-04-20 02:12:00,
2013-04-19 22:18:00,75.4,69.9,29.97,WNW,286,6.0,7.0,83,0.00,,,0.00,Wunderground v.1.15,2013-04-20 02:18:00,
2013-04-19 22:24:00,74.6,69.4,29.97,NW,304,6.0,6.0,84,0.00,,,0.00,Wunderground v.1.15,2013-04-20 02:24:00,
2013-04-19 22:30:00,74.0,69.2,29.98,West,272,4.0,4.0,85,0.00,,,0.00,Wunderground v.1.15,2013-04-20 02:30:00,
2013-04-19 22:36:00,73.4,69.0,29.98,West,260,5.0,6.0,86,0.00,,,0.00,Wunderground v.1.15,2013-04-20 02:36:00,
2013-04-19 22:42:00,72.9,68.5,29.98,WNW,284,4.0,5.0,86,0.00,,,0.00,Wunderground v.1.15,2013-04-20 02:42:00,
2013-04-19 22:48:00,72.6,68.8,29.98,WNW,286,4.0,8.0,88,0.00,,,0.00,Wunderground v.1.15,2013-04-20 02:48:00,
2013-04-19 22:54:00,72.1,68.3,29.99,WNW,290,5.0,8.0,88,0.00,,,0.00,Wunderground v.1.15,2013-04-20 02:54:00,
2013-04-19 23:00:00,71.3,66.6,29.99,WNW,290,6.0,6.0,85,0.00,,,0.00,Wunderground v.1.15,2013-04-20 03:00:00,
2013-04-19 23:06:00,70.7,65.3,29.99,East,101,6.0,8.0,83,0.00,,,0.00,Wunderground v.1.15,2013-04-20 03:06:00,
2013-04-19 23:12:00,70.3,64.2,29.99,East,91,6.0,7.0,81,0.00,,,0.00,Wunderground v.1.15,2013-04-20 03:12:00,
2013-04-19 23:18:00,69.7,63.6,29.99,NW,307,5.0,7.0,81,0.00,,,0.00,Wunderground v.1.15,2013-04-20 03:18:00,
2013-04-19 23:24:00,69.1,63.0,30.00,West,268,5.0,6.0,81,0.00,,,0.00,Wunderground v.1.15,2013-04-20 03:24:00,
2013-04-19 23:30:00,68.3,62.2,30.02,West,277,7.0,11.0,81,0.00,,,0.00,Wunderground v.1.15,2013-04-20 03:30:00,
2013-04-19 23:36:00,66.8,62.1,30.02,West,280,8.0,11.0,85,0.46,,,0.10,Wunderground v.1.15,2013-04-20 03:36:00,
2013-04-19 23:42:00,65.4,61.8,30.02,West,264,4.0,7.0,88,0.12,,,0.12,Wunderground v.1.15,2013-04-20 03:42:00,
2013-04-19 23:54:00,63.9,60.9,30.02,WNW,286,6.0,7.0,90,0.05,,,0.12,Wunderground v.1.15,2013-04-20 03:54:00,